| time (UTC) | temp C | wind direction | speed KPH | gust KPH | rain 1hr cm | rain 24hr cm | rain mn cm | humidity % | barometer mb |
| 20260502221501 | 10 | 104 | 0.0 | 0.0 | 0.00 | 1.19 | 1.19 | 91 | 1012.4 |
| 20260502220004 | 10 | 104 | 0.0 | 0.0 | 0.00 | 1.19 | 1.19 | 90 | 1012.4 |
| 20260502214502 | 11 | 104 | 0.0 | 1.6 | 0.00 | 1.19 | 1.19 | 90 | 1012.3 |
| 20260502213004 | 11 | 104 | 0.0 | 1.6 | 0.00 | 1.19 | 1.19 | 91 | 1012.3 |
| 20260502211501 | 11 | 46 | 0.0 | 0.0 | 0.00 | 1.19 | 1.19 | 91 | 1012.3 |
| 20260502210004 | 11 | 46 | 0.0 | 0.0 | 0.03 | 1.19 | 1.19 | 91 | 1012.3 |
| 20260502204502 | 12 | 46 | 0.0 | 0.0 | 0.05 | 1.19 | 1.19 | 90 | 1012.4 |
| 20260502203002 | 12 | 46 | 0.0 | 0.0 | 0.08 | 1.19 | 1.19 | 91 | 1012.6 |
| 20260502201501 | 12 | 46 | 0.0 | 0.0 | 0.13 | 1.19 | 1.19 | 90 | 1012.6 |
| 20260502200005 | 12 | 46 | 0.0 | 0.0 | 0.15 | 1.17 | 1.17 | 90 | 1012.6 |
| 20260502194502 | 12 | 46 | 0.0 | 0.0 | 0.15 | 1.17 | 1.17 | 90 | 1012.6 |
| 20260502193002 | 12 | 46 | 0.0 | 0.0 | 0.20 | 1.12 | 1.12 | 90 | 1012.6 |
| 20260502191501 | 12 | 46 | 0.0 | 3.2 | 0.23 | 1.09 | 1.09 | 90 | 1012.7 |
| 20260502190007 | 12 | 44 | 0.0 | 3.2 | 0.23 | 1.02 | 1.02 | 90 | 1012.8 |
| 20260502184501 | 12 | 19 | 1.6 | 3.2 | 0.33 | 0.99 | 0.99 | 89 | 1012.9 |
| 20260502183002 | 12 | 331 | 0.0 | 1.6 | 0.33 | 0.91 | 0.91 | 89 | 1013.1 |
| 20260502181502 | 12 | 283 | 0.0 | 1.6 | 0.33 | 0.86 | 0.86 | 89 | 1013.2 |
| 20260502163001 | 12 | 223 | 0.0 | 3.2 | 0.23 | 0.30 | 0.30 | 85 | 1014.2 |
| 20260502161501 | 13 | 208 | 0.0 | 1.6 | 0.23 | 0.23 | 0.23 | 83 | 1014.2 |
| 20260502151501 | 14 | 216 | 1.6 | 4.8 | 0.03 | 0.03 | 0.03 | 76 | 1014.7 |
| 20260502123001 | 17 | 173 | 8.0 | 12.9 | 0.00 | 0.00 | 0.00 | 64 | 1016.2 |
| 20260502121501 | 16 | 138 | 3.2 | 11.3 | 0.00 | 0.00 | 0.00 | 67 | 1016.4 |
| 20260502114501 | 17 | 161 | 4.8 | 17.7 | 0.00 | 0.00 | 0.00 | 67 | 1016.9 |
| 20260502113002 | 17 | 165 | 4.8 | 17.7 | 0.00 | 0.00 | 0.00 | 67 | 1017.0 |
| 20260502111501 | 16 | 164 | 6.4 | 16.1 | 0.00 | 0.00 | 0.00 | 69 | 1017.3 |
| 20260502110004 | 15 | 173 | 8.0 | 16.1 | 0.00 | 0.00 | 0.00 | 70 | 1017.5 |
| 20260502104501 | 16 | 148 | 1.6 | 14.5 | 0.00 | 0.03 | 0.00 | 68 | 1017.7 |
| 20260502103001 | 15 | 153 | 3.2 | 14.5 | 0.00 | 0.03 | 0.00 | 68 | 1017.9 |
| 20260502101502 | 15 | 171 | 8.0 | 17.7 | 0.00 | 0.03 | 0.00 | 70 | 1017.9 |
| 20260502071501 | 10 | 297 | 0.0 | 1.6 | 0.00 | 0.28 | 0.00 | 92 | 1018.9 |
| 20260502070003 | 10 | 297 | 0.0 | 1.6 | 0.00 | 0.28 | 0.00 | 92 | 1018.9 |
| 20260502064503 | 10 | 297 | 0.0 | 1.6 | 0.00 | 0.28 | 0.00 | 92 | 1018.9 |
| 20260502063002 | 9 | 297 | 0.0 | 1.6 | 0.00 | 0.28 | 0.00 | 91 | 1019.0 |
| 20260502061502 | 9 | 297 | 1.6 | 3.2 | 0.00 | 0.28 | 0.00 | 91 | 1019.0 |
| 20260502060002 | 8 | 289 | 1.6 | 4.8 | 0.00 | 0.28 | 0.00 | 91 | 1019.2 |
| 20260502054601 | 8 | 182 | 0.0 | 1.6 | 0.00 | 0.28 | 0.00 | 91 | 1019.2 |
| 20260502053105 | 8 | 182 | 0.0 | 0.0 | 0.00 | 0.28 | 0.00 | 91 | 1019.2 |
| 20260502051600 | 8 | 183 | 0.0 | 1.6 | 0.00 | 0.28 | 0.00 | 91 | 1019.3 |
| 20260502050100 | 7 | 5 | 0.0 | 0.0 | 0.00 | 0.28 | 0.00 | 91 | 1019.2 |
| 20260502050002 | 7 | 5 | 0.0 | 0.0 | 0.00 | 0.28 | 0.00 | 91 | 1019.2 |
| 20260502044600 | 7 | 5 | 0.0 | 0.0 | 0.00 | 0.28 | 0.00 | 90 | 1019.1 |
| 20260502043101 | 8 | 5 | 0.0 | 0.0 | 0.00 | 0.28 | 0.00 | 90 | 1019.0 |
| 20260502041600 | 8 | 5 | 0.0 | 0.0 | 0.00 | 0.28 | 0.00 | 90 | 1019.1 |
| 20260502040108 | 8 | 22 | 0.0 | 0.0 | 0.00 | 0.28 | 0.00 | 91 | 1019.1 |
| 20260502040004 | 8 | 22 | 0.0 | 0.0 | 0.00 | 0.28 | 0.00 | 91 | 1019.1 |
| 20260502034600 | 8 | 273 | 0.0 | 0.0 | 0.00 | 0.28 | 0.00 | 91 | 1019.2 |
| 20260502033101 | 8 | 273 | 0.0 | 0.0 | 0.00 | 0.28 | 0.00 | 90 | 1019.5 |
| 20260502031634 | 8 | 273 | 0.0 | 0.0 | 0.00 | 0.28 | 0.00 | 90 | 1019.7 |
| 20260502030003 | 8 | 273 | 0.0 | 0.0 | 0.00 | 0.28 | 0.00 | 90 | 1019.8 |
| 20260502024559 | 8 | 273 | 0.0 | 0.0 | 0.00 | 0.28 | 0.00 | 90 | 1019.8 |
| 20260502023059 | 8 | 273 | 0.0 | 0.0 | 0.00 | 0.28 | 0.00 | 90 | 1020.0 |
| 20260502021559 | 8 | 273 | 0.0 | 0.0 | 0.00 | 0.28 | 0.00 | 90 | 1020.1 |
| 20260502020113 | 8 | 273 | 0.0 | 0.0 | 0.00 | 0.28 | 0.00 | 90 | 1020.2 |
| 20260502020002 | 8 | 273 | 0.0 | 0.0 | 0.00 | 0.28 | 0.00 | 90 | 1020.2 |
| 20260502014600 | 8 | 273 | 0.0 | 0.0 | 0.00 | 0.28 | 0.00 | 90 | 1020.5 |
| 20260502013107 | 9 | 273 | 0.0 | 0.0 | 0.00 | 0.28 | 0.00 | 90 | 1020.7 |
| 20260502011610 | 9 | 325 | 0.0 | 0.0 | 0.00 | 0.28 | 0.00 | 90 | 1020.7 |
| 20260502010002 | 9 | 5 | 0.0 | 3.2 | 0.00 | 0.28 | 0.00 | 90 | 1020.9 |
| 20260502004606 | 9 | 311 | 0.0 | 0.0 | 0.00 | 0.28 | 0.00 | 90 | 1021.1 |
| 20260502003140 | 9 | 311 | 0.0 | 1.6 | 0.00 | 0.28 | 0.00 | 89 | 1021.2 |
| 20260502001634 | 9 | 284 | 1.6 | 4.8 | 0.00 | 0.28 | 0.00 | 89 | 1021.2 |
| 20260502000004 | 9 | 121 | 0.0 | 1.6 | 0.00 | 0.28 | 0.00 | 89 | 1021.3 |
| 20260501234503 | 9 | 121 | 0.0 | 3.2 | 0.00 | 0.28 | 0.00 | 89 | 1021.4 |
| 20260501233003 | 9 | 121 | 0.0 | 0.0 | 0.00 | 0.28 | 0.00 | 89 | 1021.4 |
| 20260501231502 | 9 | 121 | 0.0 | 0.0 | 0.00 | 0.28 | 0.00 | 89 | 1021.5 |
| 20260501230009 | 9 | 121 | 0.0 | 0.0 | 0.00 | 0.28 | 0.00 | 88 | 1021.7 |
| 20260501224503 | 8 | 121 | 0.0 | 0.0 | 0.00 | 0.28 | 0.28 | 88 | 1021.7 |
| 20260501223005 | 9 | 121 | 0.0 | 1.6 | 0.00 | 0.28 | 0.28 | 88 | 1021.8 |